User: anonymous   Login
Location: Unspecified
(0.0000°N, 0.0000°E)
Time: 20:19:35
(UTC+00:00)
Language:

OBJECT PH - Orbit

View from above orbital plane
View from above orbital plane
View from above satellite
View from above satellite

Ground track
Ground track

The orbit data is extracted from the following two-line orbital elements,

1 43596U 98067PH  18350.79101060 +.00005926 +00000-0 +88498-4 0  9991
2 43596 051.6385 187.3692 0005140 138.8315 221.3066 15.56594092019154
Epoch (UTC): 16 December 2018 18:59:03
Eccentricity: 0.0005140
inclination: 51.6385°
perigee height: 394 km
apogee height: 401 km
right ascension of ascending node: 187.3692°
argument of perigee: 138.8315°
revolutions per day: 15.56594092
mean anomaly at epoch: 221.3066°
orbit number at epoch: 1915

The dashed part of the orbit path shows where the satellite is in the earth's shadow,  

DLR